FW8343 Weather Reports


time (UTC)temp
C
wind
direction
speed
KPH
gust
KPH
rain 1hr
cm
rain 24hr
cm
rain mn
cm
humidity
%
barometer
mb
20260902232522 26 0 0.0 4.8 0.00 0.00 0.00 60 1013.9
20260902232022 26 0 0.0 4.8 0.00 0.00 0.00 59 1013.9
20260902231551 26 0 0.0 4.8 0.00 0.00 0.00 61 1013.9
20260902231015 26 218 0.0 3.2 0.00 0.00 0.00 61 1013.8
20260902230521 26 0 0.0 3.2 0.00 0.00 0.00 58 1013.7
20260902230039 26 0 0.0 4.8 0.00 0.00 0.00 58 1013.8
20260902225525 26 0 0.0 4.8 0.00 0.00 0.00 59 1013.8
20260902225021 27 0 0.0 3.2 0.00 0.00 0.00 58 1013.8
20260902224535 27 0 0.0 4.8 0.00 0.00 0.00 59 1013.7
20260902224022 27 0 0.0 4.8 0.00 0.00 0.00 56 1013.7
20260902223519 27 0 0.0 4.8 0.00 0.00 0.00 55 1013.6
20260902223036 27 0 0.0 4.8 0.00 0.00 0.00 56 1013.6
20260902222519 27 0 0.0 4.8 0.00 0.00 0.00 57 1013.6
20260902222016 27 172 0.0 9.7 0.00 0.00 0.00 55 1013.5
20260902221538 27 172 0.0 9.7 0.00 0.00 0.00 54 1013.6
20260902221020 27 151 0.0 4.8 0.00 0.00 0.00 49 1013.5
20260902220521 27 0 0.0 4.8 0.00 0.00 0.00 51 1013.5
20260902220036 27 182 1.6 8.0 0.00 0.00 0.00 47 1013.4
20260902215521 27 0 0.0 8.0 0.00 0.00 0.00 50 1013.4
20260902215020 27 226 4.8 8.0 0.00 0.00 0.00 51 1013.4
20260902214544 27 349 0.0 3.2 0.00 0.00 0.00 50 1013.4
20260902214020 27 349 0.0 3.2 0.00 0.00 0.00 52 1013.5
20260902213523 27 182 0.0 3.2 0.00 0.00 0.00 48 1013.5
20260902213038 27 0 0.0 4.8 0.00 0.00 0.00 51 1013.5
20260902212519 27 182 1.6 6.4 0.00 0.00 0.00 48 1013.6
20260902212016 27 182 1.6 6.4 0.00 0.00 0.00 49 1013.6
20260902211536 27 0 0.0 6.4 0.00 0.00 0.00 49 1013.7
20260902211023 27 0 1.6 6.4 0.00 0.00 0.00 48 1013.7
20260902210521 27 229 1.6 8.0 0.00 0.00 0.00 51 1013.8
20260902210039 27 0 3.2 8.0 0.00 0.00 0.00 47 1013.7
20260902205519 27 190 0.0 6.4 0.00 0.00 0.00 53 1013.7
20260902205021 27 142 0.0 8.0 0.00 0.00 0.00 55 1013.7
20260902204536 26 221 3.2 11.3 0.00 0.00 0.00 53 1013.7
20260902204019 26 180 4.8 11.3 0.00 0.00 0.00 57 1013.8
20260902203516 26 229 1.6 8.0 0.00 0.00 0.00 54 1013.8
20260902203038 26 5 0.0 8.0 0.00 0.00 0.00 53 1013.9
20260902202518 26 0 0.0 8.0 0.00 0.00 0.00 54 1014.0
20260902202019 26 148 4.8 8.0 0.00 0.00 0.00 58 1013.9
20260902201533 26 0 0.0 4.8 0.00 0.00 0.00 53 1013.9
20260902201019 26 0 0.0 4.8 0.00 0.00 0.00 55 1013.9
20260902200524 26 124 3.2 8.0 0.00 0.00 0.00 51 1013.9
20260902200033 26 146 3.2 9.7 0.00 0.00 0.00 57 1014.1
20260902195521 26 163 6.4 9.7 0.00 0.00 0.00 54 1014.1
20260902195020 26 179 0.0 6.4 0.00 0.00 0.00 49 1014.1
20260902194536 26 0 1.6 6.4 0.00 0.00 0.00 49 1014.2
20260902194019 26 173 1.6 4.8 0.00 0.00 0.00 56 1014.3
20260902193518 26 0 1.6 4.8 0.00 0.00 0.00 52 1014.3
20260902193042 26 0 1.6 4.8 0.00 0.00 0.00 55 1014.3
20260902192516 26 130 1.6 4.8 0.00 0.00 0.00 56 1014.3
20260902192020 26 130 1.6 6.4 0.00 0.00 0.00 53 1014.3
20260902191536 26 130 3.2 6.4 0.00 0.00 0.00 51 1014.3
20260902191020 26 0 1.6 11.3 0.00 0.00 0.00 51 1014.3
20260902190545 26 130 3.2 11.3 0.00 0.00 0.00 53 1014.2
20260902190035 26 138 4.8 9.7 0.00 0.00 0.00 52 1014.3
20260902185520 27 194 3.2 8.0 0.00 0.00 0.00 55 1014.4
20260902185021 27 164 0.0 4.8 0.00 0.00 0.00 52 1014.4
20260902184537 27 316 0.0 4.8 0.00 0.00 0.00 49 1014.4
20260902184019 27 0 0.0 6.4 0.00 0.00 0.00 53 1014.4
20260902183519 26 232 1.6 8.0 0.00 0.00 0.00 53 1014.4
20260902183035 26 0 1.6 8.0 0.00 0.00 0.00 54 1014.5
20260902182520 25 186 1.6 14.5 0.00 0.00 0.00 57 1014.6
20260902182019 25 147 3.2 14.5 0.00 0.00 0.00 62 1014.7
20260902181539 25 144 8.0 14.5 0.00 0.00 0.00 58 1014.8
20260902181016 25 149 3.2 11.3 0.00 0.00 0.00 60 1014.9
20260902180519 25 190 3.2 11.3 0.00 0.00 0.00 59 1014.7
20260902180036 25 144 4.8 9.7 0.00 0.00 0.00 56 1014.7
20260902175520 25 215 3.2 6.4 0.00 0.00 0.00 61 1014.9
20260902175020 26 165 0.0 8.0 0.00 0.00 0.00 57 1014.9
20260902174537 25 229 3.2 8.0 0.00 0.00 0.00 58 1015.0
20260902174023 26 229 3.2 9.7 0.00 0.00 0.00 56 1015.1
20260902173520 26 228 3.2 9.7 0.00 0.00 0.00 56 1015.3
20260902173037 25 26 0.0 6.4 0.00 0.00 0.00 56 1015.4
20260902172521 25 0 0.0 4.8 0.00 0.00 0.00 60 1015.3
20260902172019 25 0 0.0 4.8 0.00 0.00 0.00 62 1015.2
20260902171539 24 0 1.6 8.0 0.00 0.00 0.00 65 1015.2
20260902171023 24 147 3.2 8.0 0.00 0.00 0.00 65 1015.1
20260902170523 24 135 4.8 8.0 0.00 0.00 0.00 63 1015.0
20260902170036 24 148 3.2 9.7 0.00 0.00 0.00 68 1014.9
20260902165528 24 148 1.6 9.7 0.00 0.00 0.00 68 1015.0
20260902165020 24 142 4.8 8.0 0.00 0.00 0.00 66 1015.0
20260902164537 24 152 0.0 8.0 0.00 0.00 0.00 68 1015.1
20260902164019 23 152 1.6 8.0 0.00 0.00 0.00 69 1015.1
20260902163520 23 152 3.2 8.0 0.00 0.00 0.00 67 1015.0
20260902163032 23 134 3.2 8.0 0.00 0.00 0.00 66 1015.1
20260902162516 23 156 3.2 11.3 0.00 0.00 0.00 67 1015.2
20260902162016 23 169 1.6 11.3 0.00 0.00 0.00 67 1015.1
20260902161539 23 155 4.8 11.3 0.00 0.00 0.00 69 1015.2
20260902161022 23 174 1.6 9.7 0.00 0.00 0.00 67 1015.1
20260902160525 23 174 3.2 8.0 0.00 0.00 0.00 70 1015.2
20260902160046 23 174 1.6 8.0 0.00 0.00 0.00 71 1015.2
20260902155521 23 174 1.6 8.0 0.00 0.00 0.00 69 1015.1
20260902155021 22 174 1.6 6.4 0.00 0.00 0.00 70 1015.2
20260902154536 23 178 1.6 6.4 0.00 0.00 0.00 72 1015.2
20260902154019 22 178 1.6 6.4 0.00 0.00 0.00 72 1015.3
20260902153519 22 178 1.6 6.4 0.00 0.00 0.00 71 1015.3
20260902153034 22 0 1.6 6.4 0.00 0.00 0.00 76 1015.3
20260902152518 22 178 1.6 6.4 0.00 0.00 0.00 75 1015.3
20260902152016 22 178 1.6 8.0 0.00 0.00 0.00 76 1015.1
20260902151533 21 172 3.2 8.0 0.00 0.00 0.00 77 1015.3
20260902151019 21 172 1.6 8.0 0.00 0.00 0.00 77 1015.2
20260902150520 21 172 1.6 8.0 0.00 0.00 0.00 77 1015.1
20260902150035 21 172 3.2 8.0 0.00 0.00 0.00 77 1015.2
20260902145521 21 189 1.6 6.4 0.00 0.00 0.00 77 1015.2
20260902145023 21 0 3.2 12.9 0.00 0.00 0.00 78 1015.3
20260902144534 21 189 4.8 12.9 0.00 0.00 0.00 79 1015.3
20260902144018 21 186 4.8 11.3 0.00 0.00 0.00 78 1015.2
20260902143519 21 150 3.2 14.5 0.00 0.00 0.00 81 1015.1
20260902143034 20 182 6.4 14.5 0.00 0.00 0.00 79 1015.2
20260902142518 20 171 4.8 16.1 0.00 0.00 0.00 79 1015.5
20260902142020 20 189 8.0 16.1 0.00 0.00 0.00 80 1015.6
20260902141535 20 184 3.2 12.9 0.00 0.00 0.00 81 1015.6
20260902141021 20 222 3.2 12.9 0.00 0.00 0.00 81 1015.7
20260902140521 20 225 6.4 12.9 0.00 0.00 0.00 81 1015.6
20260902140036 20 186 4.8 12.9 0.00 0.00 0.00 81 1015.7
20260902135522 20 190 4.8 12.9 0.00 0.00 0.00 82 1015.7
20260902135020 20 225 4.8 11.3 0.00 0.00 0.00 82 1015.8
20260902134535 20 205 4.8 11.3 0.00 0.00 0.00 83 1015.9
20260902134018 19 200 3.2 12.9 0.00 0.00 0.00 83 1016.0
20260902133521 19 219 4.8 12.9 0.00 0.00 0.00 83 1016.0
20260902133035 19 188 4.8 12.9 0.00 0.00 0.00 86 1016.1
20260902132517 18 190 1.6 8.0 0.00 0.00 0.00 88 1016.0
20260902132020 18 0 3.2 6.4 0.00 0.00 0.00 87 1016.0
20260902131536 18 209 3.2 6.4 0.00 0.00 0.00 88 1016.0
20260902131020 17 209 0.0 1.6 0.00 0.00 0.00 89 1015.8
20260902130520 17 0 0.0 0.0 0.00 0.00 0.00 90 1015.7
20260902130035 17 0 0.0 0.0 0.00 0.00 0.00 90 1015.8
20260902125522 17 0 0.0 0.0 0.00 0.00 0.00 91 1015.7
20260902125024 17 0 0.0 0.0 0.00 0.00 0.00 92 1015.8
20260902124537 17 0 0.0 0.0 0.00 0.00 0.00 93 1015.9
20260902124017 17 0 0.0 3.2 0.00 0.00 0.00 94 1015.9
20260902123516 16 0 0.0 3.2 0.00 0.00 0.00 95 1015.6
20260902123036 16 0 0.0 0.0 0.00 0.00 0.00 95 1015.6
20260902122520 15 0 0.0 0.0 0.00 0.00 0.00 94 1015.4
20260902122019 15 0 0.0 0.0 0.00 0.00 0.00 94 1015.4
20260902121533 15 0 0.0 0.0 0.00 0.00 0.00 94 1015.3
20260902121020 15 0 0.0 0.0 0.00 0.00 0.00 94 1015.2
20260902120521 15 0 0.0 0.0 0.00 0.00 0.00 93 1015.2
20260902120037 15 0 0.0 0.0 0.00 0.00 0.00 92 1015.2
20260902115520 15 0 0.0 0.0 0.00 0.00 0.00 92 1015.1
20260902115020 16 0 0.0 0.0 0.00 0.00 0.00 93 1015.0
20260902114607 16 0 0.0 0.0 0.00 0.00 0.00 92 1015.0
20260902114019 16 0 0.0 0.0 0.00 0.00 0.00 92 1015.0
20260902113516 16 0 0.0 0.0 0.00 0.00 0.00 92 1015.0
20260902113035 16 0 0.0 0.0 0.00 0.00 0.00 91 1014.9
20260902112519 16 0 0.0 0.0 0.00 0.00 0.00 90 1014.7
20260902112021 16 0 0.0 0.0 0.00 0.00 0.00 90 1014.6
20260902111535 16 0 0.0 0.0 0.00 0.00 0.00 90 1014.7
20260902111020 16 0 0.0 0.0 0.00 0.00 0.00 89 1014.7
20260902110523 16 0 0.0 0.0 0.00 0.00 0.00 87 1014.4
20260902110032 17 0 0.0 0.0 0.00 0.00 0.00 88 1014.6
20260902105519 17 0 0.0 0.0 0.00 0.00 0.00 87 1014.6
20260902105022 17 0 0.0 1.6 0.00 0.00 0.00 87 1014.6
20260902104536 17 0 0.0 1.6 0.00 0.00 0.00 86 1014.7
20260902104018 17 0 0.0 0.0 0.00 0.00 0.00 86 1014.7
20260902103518 17 0 0.0 0.0 0.00 0.00 0.00 85 1014.9
20260902103034 17 0 0.0 0.0 0.00 0.00 0.00 85 1014.9
20260902102518 18 0 0.0 0.0 0.00 0.00 0.00 85 1015.0
20260902102018 18 0 0.0 0.0 0.00 0.00 0.00 84 1015.1
20260902101534 18 0 0.0 0.0 0.00 0.00 0.00 84 1015.3
20260902101019 18 0 0.0 0.0 0.00 0.00 0.00 84 1015.3
20260902100520 18 0 0.0 0.0 0.00 0.00 0.00 83 1015.3
20260902100048 18 0 0.0 0.0 0.00 0.00 0.00 83 1015.4
20260902095520 18 0 0.0 1.6 0.00 0.00 0.00 83 1015.5
20260902095019 18 0 0.0 3.2 0.00 0.00 0.00 84 1015.7
20260902094535 18 0 0.0 4.8 0.00 0.00 0.00 84 1015.6
20260902094018 18 0 1.6 4.8 0.00 0.00 0.00 86 1015.8
20260902093518 18 0 0.0 3.2 0.00 0.00 0.00 87 1016.0
20260902093047 17 0 0.0 1.6 0.00 0.00 0.00 86 1015.9
20260902092521 17 0 0.0 0.0 0.00 0.00 0.00 85 1015.7
20260902092022 17 0 0.0 0.0 0.00 0.00 0.00 85 1015.6
20260902091537 17 0 0.0 0.0 0.00 0.00 0.00 86 1015.5
20260902091019 17 0 0.0 0.0 0.00 0.00 0.00 86 1015.3
20260902090518 17 0 0.0 0.0 0.00 0.00 0.00 88 1015.2
20260902090034 17 0 0.0 0.0 0.00 0.00 0.00 87 1015.1
20260902085515 17 0 0.0 0.0 0.00 0.00 0.00 86 1015.1
20260902085016 17 0 0.0 0.0 0.00 0.00 0.00 85 1014.9
20260902084534 17 0 0.0 0.0 0.00 0.00 0.00 84 1014.9
20260902084023 17 0 0.0 0.0 0.00 0.00 0.00 86 1015.0
20260902083520 17 0 0.0 0.0 0.00 0.00 0.00 86 1015.0
20260902083039 17 0 0.0 0.0 0.00 0.00 0.00 84 1014.9
20260902082521 17 0 0.0 0.0 0.00 0.00 0.00 84 1014.9
20260902082021 17 0 0.0 0.0 0.00 0.00 0.00 84 1015.0
20260902081535 17 0 0.0 0.0 0.00 0.00 0.00 83 1015.1
20260902081018 17 0 0.0 0.0 0.00 0.00 0.00 82 1015.0
20260902080518 17 0 0.0 0.0 0.00 0.00 0.00 82 1015.0
20260902080033 17 0 0.0 0.0 0.00 0.00 0.00 83 1014.9
20260902075517 17 0 0.0 0.0 0.00 0.00 0.00 84 1014.8
20260902075025 18 0 0.0 0.0 0.00 0.00 0.00 83 1014.7
20260902074539 18 0 0.0 0.0 0.00 0.00 0.00 82 1014.6
20260902074020 18 0 0.0 0.0 0.00 0.00 0.00 82 1015.0
20260902073520 18 0 0.0 0.0 0.00 0.00 0.00 82 1015.2
20260902073036 18 0 0.0 0.0 0.00 0.00 0.00 84 1015.3
20260902072519 18 0 0.0 0.0 0.00 0.00 0.00 83 1015.2
20260902072016 18 0 0.0 0.0 0.00 0.00 0.00 85 1015.4
20260902071533 18 0 0.0 0.0 0.00 0.00 0.00 82 1015.3
20260902071016 18 0 0.0 0.0 0.00 0.00 0.00 81 1015.0
20260902070521 18 0 0.0 0.0 0.00 0.00 0.00 82 1015.1
20260902070035 18 0 0.0 0.0 0.00 0.00 0.00 81 1015.3
20260902065520 18 0 0.0 0.0 0.00 0.00 0.00 80 1015.0
20260902065020 18 0 0.0 0.0 0.00 0.00 0.00 83 1014.8
20260902064540 18 0 0.0 0.0 0.00 0.00 0.00 78 1014.9
20260902064022 18 0 0.0 0.0 0.00 0.00 0.00 78 1014.9
20260902063525 18 0 0.0 0.0 0.00 0.00 0.00 78 1014.8
20260902063036 18 0 0.0 0.0 0.00 0.00 0.00 79 1014.7
20260902062519 18 0 0.0 0.0 0.00 0.00 0.00 80 1015.0
20260902062021 18 0 0.0 0.0 0.00 0.00 0.00 80 1015.3
20260902061544 18 0 0.0 0.0 0.00 0.00 0.00 77 1015.2
20260902061021 18 0 0.0 1.6 0.00 0.00 0.00 77 1015.2
20260902060519 18 0 0.0 1.6 0.00 0.00 0.00 77 1015.2
20260902060040 18 0 0.0 0.0 0.00 0.00 0.00 76 1015.2
20260902055525 18 0 0.0 0.0 0.00 0.00 0.00 76 1015.4
20260902055020 18 0 0.0 0.0 0.00 0.00 0.00 76 1015.4
20260902054540 18 0 0.0 0.0 0.00 0.00 0.00 75 1015.2
20260902054021 19 0 0.0 0.0 0.00 0.00 0.00 75 1015.2
20260902053521 19 0 0.0 0.0 0.00 0.00 0.00 74 1015.1
20260902053036 19 0 0.0 0.0 0.00 0.00 0.00 75 1015.1
20260902052521 19 0 0.0 0.0 0.00 0.00 0.00 75 1015.3
20260902052026 18 0 0.0 0.0 0.00 0.00 0.00 75 1015.3
20260902051535 18 0 0.0 0.0 0.00 0.00 0.00 76 1015.3
20260902051018 18 0 0.0 0.0 0.00 0.00 0.00 76 1015.4
20260902050518 18 0 0.0 0.0 0.00 0.00 0.00 77 1015.5
20260902050040 18 0 0.0 0.0 0.00 0.00 0.00 77 1015.5
20260902045519 18 0 0.0 0.0 0.00 0.00 0.00 76 1015.5
20260902045020 18 0 0.0 0.0 0.00 0.00 0.00 76 1015.5
20260902044535 18 0 0.0 0.0 0.00 0.00 0.00 75 1015.4
20260902044020 18 0 0.0 0.0 0.00 0.00 0.00 76 1015.5
20260902043521 18 0 0.0 3.2 0.00 0.00 0.00 74 1015.6
20260902043036 18 0 0.0 3.2 0.00 0.00 0.00 75 1015.8
20260902042519 18 210 0.0 3.2 0.00 0.00 0.00 78 1015.8
20260902042019 18 0 0.0 0.0 0.00 0.00 0.00 77 1015.6
20260902041532 18 0 0.0 0.0 0.00 0.00 0.00 74 1015.7
20260902041016 18 0 0.0 0.0 0.00 0.00 0.00 74 1015.5
20260902040518 18 0 0.0 0.0 0.00 0.00 0.00 73 1015.5
20260902040034 18 0 0.0 0.0 0.00 0.00 0.00 73 1015.4
20260902035525 18 0 0.0 0.0 0.00 0.00 0.00 73 1015.3
20260902035026 18 0 0.0 0.0 0.00 0.00 0.00 73 1015.3
20260902034533 18 0 0.0 0.0 0.00 0.00 0.00 74 1015.4
20260902034019 18 0 0.0 0.0 0.00 0.00 0.00 74 1015.4
20260902033521 18 0 0.0 0.0 0.00 0.00 0.00 76 1015.4
20260902033041 18 0 0.0 0.0 0.00 0.00 0.00 78 1015.3
20260902032519 18 0 0.0 0.0 0.00 0.00 0.00 79 1015.3
20260902032024 18 0 0.0 0.0 0.00 0.00 0.00 79 1015.2
20260902031536 17 0 0.0 0.0 0.00 0.00 0.00 79 1015.2
20260902031018 17 0 0.0 0.0 0.00 0.00 0.00 78 1015.1
20260902030516 17 0 0.0 0.0 0.00 0.00 0.00 77 1015.0
20260902030035 17 0 0.0 0.0 0.00 0.00 0.00 76 1015.0
20260902025521 18 0 0.0 0.0 0.00 0.00 0.00 75 1015.3
20260902025022 18 0 0.0 0.0 0.00 0.00 0.00 73 1015.2
20260902024539 18 0 0.0 0.0 0.00 0.00 0.00 72 1015.1
20260902024018 19 0 0.0 0.0 0.00 0.00 0.00 71 1015.1
20260902023521 20 0 0.0 0.0 0.00 0.00 0.00 69 1015.0
20260902023039 20 0 0.0 0.0 0.00 0.00 0.00 68 1015.1
20260902022521 20 0 0.0 0.0 0.00 0.00 0.00 68 1015.1
20260902022020 20 0 0.0 0.0 0.00 0.00 0.00 70 1015.1
20260902021545 20 0 0.0 0.0 0.00 0.00 0.00 66 1015.2
20260902021016 20 0 0.0 0.0 0.00 0.00 0.00 66 1015.2
20260902020517 20 0 0.0 0.0 0.00 0.00 0.00 65 1015.1
20260902020035 21 0 0.0 0.0 0.00 0.00 0.00 65 1015.1
20260902015520 21 0 0.0 0.0 0.00 0.00 0.00 64 1015.0
20260902015023 21 0 0.0 0.0 0.00 0.00 0.00 65 1015.0
20260902014538 21 0 0.0 0.0 0.00 0.00 0.00 64 1014.9
20260902014020 21 0 0.0 0.0 0.00 0.00 0.00 63 1014.8
20260902013524 21 0 0.0 0.0 0.00 0.00 0.00 63 1014.7
20260902013037 21 0 0.0 0.0 0.00 0.00 0.00 63 1014.7
20260902012521 22 0 0.0 0.0 0.00 0.00 0.00 62 1014.7
20260902012019 22 0 0.0 0.0 0.00 0.00 0.00 60 1014.6
20260902011534 22 0 0.0 0.0 0.00 0.00 0.00 60 1014.6
20260902011019 22 0 0.0 0.0 0.00 0.00 0.00 59 1014.6
20260902010522 22 0 0.0 0.0 0.00 0.00 0.00 58 1014.5
20260902010032 22 0 0.0 0.0 0.00 0.00 0.00 58 1014.5
20260902005521 23 0 0.0 0.0 0.00 0.00 0.00 57 1014.5
20260902005020 23 0 0.0 0.0 0.00 0.00 0.00 57 1014.6
20260902004534 23 0 0.0 1.6 0.00 0.00 0.00 56 1014.5
20260902004023 23 0 0.0 1.6 0.00 0.00 0.00 56 1014.3
20260902003519 23 0 0.0 0.0 0.00 0.00 0.00 55 1014.3
20260902003037 23 0 0.0 0.0 0.00 0.00 0.00 55 1014.2
20260902002519 24 0 0.0 0.0 0.00 0.00 0.00 54 1014.2
20260902002019 24 0 0.0 3.2 0.00 0.00 0.00 53 1014.3
20260902001534 24 0 0.0 3.2 0.00 0.00 0.00 53 1014.4
20260902001019 25 0 0.0 3.2 0.00 0.00 0.00 53 1014.5
20260902000519 25 0 0.0 3.2 0.00 0.00 0.00 54 1014.4
20260902000037 25 0 0.0 3.2 0.00 0.00 0.00 52 1014.3
20260901235521 25 0 0.0 6.4 0.00 0.00 0.00 51 1014.4
20260901235021 25 0 0.0 6.4 0.00 0.00 0.00 51 1014.3
20260901234535 25 221 0.0 6.4 0.00 0.00 0.00 52 1014.2
20260901234021 25 0 0.0 11.3 0.00 0.00 0.00 51 1014.3
20260901233520 25 0 1.6 11.3 0.00 0.00 0.00 49 1014.1
20260901233052 25 228 3.2 11.3 0.00 0.00 0.00 50 1014.2